STARLINK-4579, 53677

Orbit data source: Space-Track

STARLINK-4579, 53677 is a payload satellite owned by SpaceX/Seattle (US) in SSO that was launched on Wed, 31 Aug 2022 UTC via an FALCON 9 launch vehicle from the Air Force Western Test Range (AFWTR). Payload-class satellites include a variety of spacecraft equipped with specific instruments for various scientific and technological missions. These include communications satellites like Starlink; space stations such as the ISS; scientific satellites like the Hubble; Earth observation satellites from companies like Planet Labs, Umbra, and HawkEye 360; GPS; miniature CubeSats for education and research; and military/defense satellites.

Loading next visibility...
Identifier
53677, 2022-105AF
Orbit
SSO
Country
Flag of USUS
Related business
Manufacturer
SpaceX/Seattle
Mission
Operational Commercial Communications
Bus & Motor
STARLINK, Unknown motor
Mass
300 kg wet, ~290 kg dry
Launch date (UTC)
2022-08-31 (4 years ago)
Launch vehicle
FALCON 9
Launch site
Air Force Western Test Range (AFWTR)
Object type
Payload
Rocket body
Debris
Shape & HBR
Box + 1 Pan, 10.1 m
Radar Cross Section
13.562 m², Large (>1 m²)

Expand to show TLE details & history
Last TLE update: 2 days ago

TLE from 2 days ago
0 STARLINK-4579
1 53677U 22105AF  26171.23407126  .00000951  00000-0  69865-4 0  9993
2 53677  97.3413  51.2191 0001585  84.2052 275.9356 15.05654961208735
Epoch: 2026-06-20T05:37Z
TLE epoch observation values (Epoch: 2026-06-20T05:37:03.756Z)
Latitude
-0.00006°
Longitude
58.50183°
Altitude
552.455 km
Speed
7.586 km/s
True Right ascension
03h 24m 52s
True Declination
0° 00' 00"
Sunlit
Object was in daylight at epoch
Visualization orbit readout
Latitude
Unknown
Longitude
Unknown
Altitude
Unknown
Speed
Unknown
Apparent Right ascension
Unknown
Apparent Declination
Unknown
Sunlit
N/A
Visualization observer readout
Local Sidereal Time
21:37:55
Azimuth
Unknown
Elevation
Unknown
Doppler factor
Unknown
Orbital elements
Apogee altitude
547.576 km
Perigee altitude
545.381 km
Semi-major axis
6,924.615 km
Eccentricity
0.00016
Inclination
97.3413°
RAAN
51.2191°
Arg. of periapsis
84.2052°
True anomaly
275.91753°
Mean anomaly
275.9356°
Eccentric anomaly
275.92657°
Mean motion
3.7666 °/min
Orbital period
95.58 mins
BSTAR
0.000069865
Loading maneuver chart data...
Computing Atmospheric mass density...
Loading historical data...
Loading historical data...
Loading historical data...
Loading historical data...
Loading historical data...
Loading historical data...
Loading historical data...

Documentation

Showing up to 5 results
|